STARLINK-32919, 63150

Orbit data source: Space-Track

STARLINK-32919, 63150 is a payload satellite owned by SpaceX/Seattle (US) in LEO that was launched on Mon, 03 Mar 2025 UTC via an FALCON 9 launch vehicle from the Air Force Eastern Test Range (AFETR). Payload-class satellites include a variety of spacecraft equipped with specific instruments for various scientific and technological missions. These include communications satellites like Starlink; space stations such as the ISS; scientific satellites like the Hubble; Earth observation satellites from companies like Planet Labs, Umbra, and HawkEye 360; GPS; miniature CubeSats for education and research; and military/defense satellites.

Loading next visibility...
Identifier
63150, 2025-043U
Orbit
LEO
Country
Flag of USUS
Related business
Manufacturer
SpaceX/Seattle
Mission
Operational Commercial Communications
Bus & Motor
STARLINK V2M, Unknown motor
Mass
730 kg wet, ~700 kg dry
Launch date (UTC)
2025-03-03 (9 months ago)
Launch vehicle
FALCON 9
Launch site
Air Force Eastern Test Range (AFETR)
Object type
Payload
Rocket body
Debris
Shape & HBR
Box + 2 Pan, 17.7 m
Radar Cross Section
33.884 m², Large (>1 m²)

Expand to show TLE details & history
Last TLE update: 10 hours ago

TLE from 10 hours ago
0 STARLINK-32919
1 63150U 25043U   25341.89477215  .00026935  00000-0  98343-3 0  9992
2 63150  42.9977 174.6244 0001998 269.6658  90.3965 15.27623315 43321
Epoch: 2025-12-07T21:28Z
TLE epoch observation values (Epoch: 2025-12-07T21:28:28.313Z)
Latitude
-0.00001°
Longitude
135.60482°
Altitude
482.704 km
Speed
7.626 km/s
True Right ascension
11h 38m 29s
True Declination
0° 00' 00"
Sunlit
Object was in daylight at epoch
Visualization orbit readout
Latitude
Unknown
Longitude
Unknown
Altitude
Unknown
Speed
Unknown
Apparent Right ascension
Unknown
Apparent Declination
Unknown
Sunlit
N/A
Visualization observer readout
Local Sidereal Time
05:19:29
Azimuth
Unknown
Elevation
Unknown
Doppler factor
Unknown
Orbital elements
Apogee altitude
486.236 km
Perigee altitude
483.494 km
Semi-major axis
6,863.002 km
Eccentricity
0.0002
Inclination
42.9977°
RAAN
174.6244°
Arg. of periapsis
269.6658°
True anomaly
90.41939°
Mean anomaly
90.3965°
Eccentric anomaly
90.40795°
Mean motion
3.81744 °/min
Orbital period
94.3 mins
BSTAR
0.00098343
Loading maneuver chart data...
Computing Atmospheric mass density...
Loading historical data...
Loading historical data...
Loading historical data...
Loading historical data...
Loading historical data...
Loading historical data...
Loading historical data...

Documentation

Showing up to 5 results
|